Погода в Куантане

Малайзия     3°49′16″N   103°20′10″E
темп.,
°C
ветер,
м/с
пор.,
м/с
влажн.,
%
обл.,
%
осадки,
мм/ч
давл.,
гПа
погр.,
м
19 мая, ср
ср1923:00+24юз249776 2.8 1010113
02:00+24з1296100 4.5 100875
05:00+24сз1295100 0.0 100739
08:00+24зсз1193100 0.0 100863
11:00+26ююз0186100 0.0 1009228
14:00+27вюв1181100 0.0 1008381
17:00+26всв1185100 0.1 1008214
20:00+25с0091100 0.6 100928
20 мая, чт
чт2023:00+24зюз1193100 0.0 101024
02:00+24сз1196100 0.1 101042
05:00+23зсз1196100 0.9 100939
08:00+23сз1193100 1.0 101027
11:00+25с1289100 0.1 1011114
14:00+28с1272100 0.1 1008439
17:00+26в1181100 0.0 1007150
20:00+25в1186100 0.0 101025
21 мая, пт
пт2123:00+24зюз1188100 0.0 101023
02:00+24юз2390100 0.0 100963
05:00+23ююз2389100 0.0 100881
08:00+24юз119181 0.7 101033
11:00+30ююз347074 0.0 1010754
14:00+33ююз345555 0.0 10071800
17:00+29ююв258499 0.9 1005235
20:00+26ю259286 2.1 1008112
22 мая, сб
сб2223:00+25ююз1293100 0.4 101036
02:00+25юз1294100 4.4 100945
05:00+24з1194100 2.3 100817
08:00+24зсз1195100 3.9 101048
11:00+27всв1187100 1.2 1011155
14:00+29юз2372100 1.3 1008823
17:00+29зюз2375100 0.1 1006560
20:00+26ююз1185100 0.1 100822
23 мая, вс
вс2323:00+25юз118996 0.1 100920
02:00+24зюз119293 0.1 100818
05:00+24зюз119497 0.0 100720
08:00+25зюз1289100 0.0 100975
11:00+30ююз126566 0.0 1010766
14:00+33ююз245360 0.0 10071606
17:00+33юв245684 0.0 10051165
20:00+26вюв228579 0.1 100856